Location: Berlin
(42.3812°N, 71.6370°W)
Time: 22:09:39
(UTC+00:00)

Cosmos 968 Rocket - Pass Details

Date: 15 November 2025
Orbit: 735 x 766 km, 74.0° (Epoch: 11 December)

Event Time Altitude Azimuth Distance (km) Brightness Sun altitude
Exits shadow 10:44:50 - 336° (NNW) 3,286 6.4 -10.0°
Rises 10:44:57 0° 335° (NNW) 3,239 6.4 -10.0°
Reaches altitude 10° 10:47:22 10° 332° (NNW) 2,311 5.6 -9.5°
Maximum altitude 10:52:29 56° 255° (WSW) 909 3.6 -8.6°
Drops below altitude 10° 10:57:35 10° 178° (S) 2,295 6.2 -7.7°
Sets 10:59:58 0° 174° (S) 3,215 7.1 -7.3°
